When you browse on this site, cookies collect data to enhance your experience and personalize the content and advertising you see.
Visit our Privacy Policy to learn more. By continuing to use the site, you agree to this use of cookies and data.
  • In Hungary
  • List of Countries
  • For 7 days
  • Water Temperature
  • Satellite Maps
  • Weather Map
  • News
  • Weather Widgets
  • user-avatar
    Login

    Hourly Weather Smolan

    Today, 20 January, Sunday

    Time Temperature Precipitation Wind Pressure Humidity
    00:00 +1°C° 0.1 mm 1 mps 653 mmHg 96%
    01:00 +1°C° 0.1 mm 1 mps 653 mmHg 96%
    02:00 +1°C° 0 mm 1 mps 653 mmHg 96%
    03:00 +1°C° 0 mm 1 mps 653 mmHg 97%
    04:00 +1°C° 0 mm 1 mps 653 mmHg 97%
    05:00 +1°C° 0 mm 1 mps 652 mmHg 97%
    06:00 +1°C° 0.1 mm 1 mps 652 mmHg 97%
    07:00 +1°C° 0.1 mm 1 mps 652 mmHg 97%
    08:00 +1°C° 0 mm 1 mps 652 mmHg 98%
    09:00 +2°C° 0.4 mm 1 mps 652 mmHg 98%
    10:00 +2°C° 0.4 mm 1 mps 652 mmHg 98%
    11:00 +3°C° 0.4 mm 1 mps 652 mmHg 98%
    12:00 +3°C° 0.1 mm 1 mps 652 mmHg 97%
    13:00 +3°C° 0.1 mm 1 mps 651 mmHg 97%
    14:00 +2°C° 0.1 mm 2 mps 651 mmHg 96%
    15:00 +3°C° 0 mm 1 mps 651 mmHg 97%
    16:00 +3°C° 0 mm 1 mps 651 mmHg 97%
    17:00 +2°C° 0 mm 1 mps 650 mmHg 97%
    18:00 +2°C° 0 mm 1 mps 650 mmHg 97%
    19:00 +1°C° 0 mm 1 mps 650 mmHg 96%
    20:00 0°C° 0 mm 1 mps 650 mmHg 96%
    21:00 0°C° 0 mm 1 mps 650 mmHg 93%
    22:00 -1°C° 0 mm 1 mps 650 mmHg 91%
    23:00 -1°C° 0 mm 1 mps 650 mmHg 89%

    Tomorrow, 21 January, Monday

    Time Temperature Precipitation Wind Pressure Humidity
    00:00 -1°C° 0 mm 1 mps 650 mmHg 88%
    01:00 -1°C° 0 mm 1 mps 650 mmHg 86%
    02:00 -2°C° 0 mm 1 mps 650 mmHg 85%
    03:00 -2°C° 0 mm 1 mps 650 mmHg 85%
    04:00 -2°C° 0 mm 1 mps 650 mmHg 84%
    05:00 -2°C° 0 mm 1 mps 650 mmHg 84%
    06:00 -2°C° 0 mm 1 mps 650 mmHg 85%
    07:00 -2°C° 0 mm 1 mps 651 mmHg 85%
    08:00 -2°C° 0 mm 1 mps 651 mmHg 85%
    09:00 0°C° 0 mm 1 mps 652 mmHg 86%
    10:00 +2°C° 0 mm 1 mps 653 mmHg 87%
    11:00 +4°C° 0 mm 1 mps 653 mmHg 87%
    12:00 +4°C° 0 mm 1 mps 653 mmHg 87%
    13:00 +4°C° 0 mm 1 mps 653 mmHg 87%
    14:00 +4°C° 0 mm 1 mps 653 mmHg 87%
    15:00 +3°C° 0.1 mm 1 mps 653 mmHg 90%
    16:00 +3°C° 0.1 mm 1 mps 653 mmHg 92%
    17:00 +2°C° 0.1 mm 1 mps 653 mmHg 94%
    18:00 +2°C° 0 mm 1 mps 653 mmHg 95%
    19:00 +1°C° 0 mm 1 mps 653 mmHg 96%
    20:00 0°C° 0 mm 0 mps 653 mmHg 97%
    21:00 -1°C° 0 mm 0 mps 653 mmHg 97%
    22:00 -1°C° 0 mm 0 mps 653 mmHg 96%
    23:00 -1°C° 0 mm 0 mps 653 mmHg 96%

    Day after tomorrow, 22 January, Tuesday

    Time Temperature Precipitation Wind Pressure Humidity
    00:00 -1°C° 0 mm 0 mps 653 mmHg 96%
    01:00 -2°C° 0 mm 0 mps 653 mmHg 97%
    02:00 -2°C° 0 mm 0 mps 653 mmHg 97%
    03:00 -2°C° 0 mm 0 mps 653 mmHg 97%
    04:00 -2°C° 0 mm 0 mps 653 mmHg 97%
    05:00 -2°C° 0 mm 0 mps 652 mmHg 98%
    06:00 -2°C° 0.1 mm 0 mps 652 mmHg 97%
    07:00 -1°C° 0.1 mm 1 mps 652 mmHg 97%
    08:00 -1°C° 0.1 mm 1 mps 652 mmHg 97%
    09:00 0°C° 0.1 mm 1 mps 653 mmHg 96%
    10:00 +1°C° 0.1 mm 1 mps 653 mmHg 95%
    11:00 +2°C° 0.1 mm 1 mps 653 mmHg 94%
    12:00 +2°C° 0.1 mm 1 mps 652 mmHg 94%
    13:00 +2°C° 0.1 mm 1 mps 652 mmHg 94%
    14:00 +2°C° 0.1 mm 1 mps 651 mmHg 94%
    15:00 +2°C° 0.1 mm 1 mps 651 mmHg 95%
    16:00 +1°C° 0.1 mm 1 mps 650 mmHg 96%
    17:00 +1°C° 0.1 mm 1 mps 650 mmHg 96%
    18:00 -1°C° 0.1 mm 2 mps 649 mmHg 96%
    19:00 -1°C° 0.1 mm 2 mps 649 mmHg 97%
    20:00 -1°C° 0.1 mm 2 mps 649 mmHg 97%
    21:00 -1°C° 0.4 mm 2 mps 648 mmHg 97%
    22:00 -1°C° 0.4 mm 2 mps 648 mmHg 97%
    23:00 +1°C° 0.4 mm 1 mps 648 mmHg 97%

    23 January, Wednesday

    Time Temperature Precipitation Wind Pressure Humidity
    00:00 +1°C° 1.2 mm 1 mps 647 mmHg 97%
    01:00 +2°C° 1.2 mm 1 mps 647 mmHg 98%
    02:00 +2°C° 1.2 mm 1 mps 646 mmHg 98%
    03:00 +1°C° 0.9 mm 2 mps 646 mmHg 98%
    04:00 +1°C° 0.9 mm 2 mps 645 mmHg 98%
    05:00 +1°C° 0.9 mm 2 mps 645 mmHg 98%
    06:00 +1°C° 0.3 mm 3 mps 645 mmHg 98%
    07:00 +1°C° 0.3 mm 3 mps 644 mmHg 98%
    08:00 +1°C° 0.3 mm 3 mps 644 mmHg 98%
    09:00 0°C° 0 mm 4 mps 644 mmHg 97%
    10:00 +1°C° 0 mm 4 mps 644 mmHg 96%
    11:00 +1°C° 0 mm 4 mps 645 mmHg 94%
    12:00 +1°C° 0.1 mm 4 mps 644 mmHg 94%
    13:00 +1°C° 0.1 mm 4 mps 644 mmHg 93%
    14:00 +1°C° 0.1 mm 4 mps 644 mmHg 92%
    15:00 +2°C° 0 mm 3 mps 644 mmHg 93%
    16:00 +1°C° 0 mm 3 mps 644 mmHg 94%
    17:00 +2°C° 0 mm 2 mps 644 mmHg 95%
    18:00 +1°C° 0 mm 2 mps 644 mmHg 96%
    19:00 +1°C° 0 mm 2 mps 645 mmHg 96%
    20:00 +1°C° 0 mm 1 mps 645 mmHg 96%
    21:00 +1°C° 0 mm 1 mps 645 mmHg 96%
    22:00 +1°C° 0 mm 1 mps 645 mmHg 96%
    23:00 +1°C° 0 mm 1 mps 645 mmHg 96%

    24 January, Thursday

    Time Temperature Precipitation Wind Pressure Humidity
    00:00 +2°C° 1.4 mm 1 mps 645 mmHg 97%
    01:00 +2°C° 1.4 mm 1 mps 645 mmHg 98%
    02:00 +2°C° 1.4 mm 1 mps 644 mmHg 98%
    03:00 +2°C° 3.8 mm 1 mps 644 mmHg 98%
    04:00 +3°C° 3.8 mm 1 mps 644 mmHg 99%
    05:00 +2°C° 3.8 mm 2 mps 643 mmHg 99%
    06:00 +3°C° 3.8 mm 1 mps 643 mmHg 99%
    07:00 +3°C° 3.8 mm 1 mps 643 mmHg 99%
    08:00 +3°C° 3.8 mm 1 mps 643 mmHg 99%
    09:00 +3°C° 3.8 mm 1 mps 643 mmHg 99%
    10:00 +3°C° 3.8 mm 1 mps 643 mmHg 99%
    11:00 +3°C° 3.8 mm 1 mps 642 mmHg 99%
    12:00 +3°C° 3.6 mm 1 mps 641 mmHg 99%
    13:00 +3°C° 3.6 mm 1 mps 641 mmHg 99%
    14:00 +2°C° 3.6 mm 1 mps 640 mmHg 99%
    15:00 +2°C° 3.3 mm 1 mps 639 mmHg 99%
    16:00 +1°C° 3.3 mm 2 mps 639 mmHg 99%
    17:00 +2°C° 3.3 mm 2 mps 639 mmHg 99%
    18:00 +1°C° 1.9 mm 2 mps 639 mmHg 98%
    19:00 +1°C° 1.9 mm 2 mps 639 mmHg 98%
    20:00 +1°C° 1.9 mm 2 mps 639 mmHg 98%
    21:00 +1°C° 1.5 mm 2 mps 638 mmHg 98%
    22:00 +2°C° 1.5 mm 1 mps 638 mmHg 98%
    23:00 +2°C° 1.5 mm 1 mps 638 mmHg 98%

    25 January, Friday

    Time Temperature Precipitation Wind Pressure Humidity
    00:00 +2°C° 0.7 mm 1 mps 638 mmHg 98%
    01:00 +2°C° 0.7 mm 1 mps 638 mmHg 99%
    02:00 +2°C° 0.7 mm 1 mps 638 mmHg 99%
    03:00 +2°C° 0.6 mm 1 mps 638 mmHg 99%
    04:00 +2°C° 0.6 mm 1 mps 637 mmHg 99%
    05:00 +2°C° 0.6 mm 1 mps 637 mmHg 99%
    06:00 +1°C° 1.9 mm 2 mps 637 mmHg 99%
    07:00 +1°C° 1.9 mm 2 mps 637 mmHg 98%
    08:00 +1°C° 1.9 mm 2 mps 637 mmHg 98%
    09:00 0°C° 1 mm 3 mps 638 mmHg 98%
    10:00 0°C° 1 mm 3 mps 638 mmHg 98%
    11:00 0°C° 1 mm 3 mps 638 mmHg 98%
    12:00 0°C° 0.6 mm 3 mps 638 mmHg 96%
    13:00 0°C° 0.6 mm 3 mps 638 mmHg 95%
    14:00 +1°C° 0.6 mm 3 mps 638 mmHg 94%
    15:00 +1°C° 0.5 mm 2 mps 638 mmHg 95%
    16:00 +1°C° 0.5 mm 2 mps 638 mmHg 96%
    17:00 +2°C° 0.5 mm 1 mps 638 mmHg 97%
    18:00 +2°C° 0.6 mm 1 mps 639 mmHg 97%
    19:00 +2°C° 0.6 mm 1 mps 639 mmHg 97%
    20:00 +2°C° 0.6 mm 1 mps 639 mmHg 98%
    21:00 +2°C° 1.1 mm 1 mps 640 mmHg 98%
    22:00 +2°C° 1.1 mm 1 mps 640 mmHg 98%
    23:00 +2°C° 1.1 mm 1 mps 640 mmHg 98%
    Show more